CW7769 Weather Reports


time (UTC)temp
C
wind
direction
speed
KPH
gust
KPH
rain 1hr
cm
rain 24hr
cm
rain mn
cm
humidity
%
barometer
mb
20260905202957 17 25 0.0 0.0 0.00 0.08 0.08 42 1025.6
20260905202001 18 25 0.0 0.0 0.00 0.08 0.08 41 1025.5
20260905200934 18 25 0.0 0.0 0.00 0.08 0.08 40 1025.4
20260905195959 18 25 0.0 0.0 0.00 0.08 0.08 39 1025.3
20260905195001 18 25 0.0 0.0 0.00 0.08 0.08 38 1025.3
20260905194009 19 25 0.0 0.0 0.00 0.08 0.08 37 1025.1
20260905192945 20 25 0.0 0.0 0.00 0.08 0.08 35 1025.1
20260905191935 20 25 0.0 0.0 0.00 0.08 0.08 34 1025.0
20260905185900 21 272 0.0 0.0 0.00 0.08 0.08 33 1024.6
20260905183730 22 272 0.0 0.0 0.00 0.08 0.08 29 1024.2
20260905182707 22 272 0.0 0.0 0.00 0.08 0.08 29 1024.1
20260905181656 22 272 0.0 0.0 0.00 0.08 0.08 27 1024.0
20260905180636 22 272 0.0 0.0 0.00 0.08 0.08 27 1024.0
20260905175648 23 272 0.0 3.2 0.00 0.08 0.08 25 1023.7
20260905174649 23 308 0.0 9.7 0.00 0.08 0.08 24 1023.6
20260905173628 24 287 1.6 9.7 0.00 0.08 0.08 21 1023.4
20260905172608 24 274 1.6 9.7 0.00 0.08 0.08 21 1023.4
20260905170447 25 288 0.0 8.0 0.00 0.08 0.08 21 1023.2
20260905165432 25 284 1.6 22.5 0.00 0.08 0.08 19 1023.1
20260905164408 25 264 4.8 22.5 0.00 0.08 0.08 19 1023.0
20260905163410 25 285 4.8 17.7 0.00 0.08 0.08 19 1023.0
20260905162431 26 274 4.8 17.7 0.00 0.08 0.08 19 1022.8
20260905161431 26 261 3.2 11.3 0.00 0.08 0.08 20 1022.7
20260905160454 26 280 1.6 12.9 0.00 0.08 0.08 20 1022.6
20260905155452 26 315 1.6 12.9 0.00 0.08 0.08 19 1022.5
20260905154423 26 282 3.2 17.7 0.00 0.08 0.08 20 1022.5
20260905152256 26 302 3.2 17.7 0.00 0.08 0.08 19 1022.5
20260905151244 26 269 3.2 30.6 0.00 0.08 0.08 18 1022.5
20260905150227 27 276 6.4 30.6 0.00 0.08 0.08 19 1022.5
20260905145226 26 256 4.8 16.1 0.00 0.08 0.08 19 1022.4
20260905144210 26 268 4.8 24.1 0.00 0.08 0.08 19 1022.3
20260905143136 26 219 4.8 24.1 0.00 0.08 0.08 19 1022.3
20260905142106 27 273 4.8 22.5 0.00 0.08 0.08 18 1022.3
20260905140014 27 285 3.2 16.1 0.00 0.08 0.08 21 1022.3
20260905135005 27 267 4.8 27.4 0.00 0.08 0.08 20 1022.3
20260905133938 27 275 3.2 27.4 0.00 0.08 0.08 18 1022.3
20260905132934 27 300 4.8 24.1 0.00 0.08 0.08 20 1022.3
20260905131902 27 312 4.8 22.5 0.00 0.08 0.08 22 1022.4
20260905130830 27 254 4.8 22.5 0.00 0.08 0.08 22 1022.4
20260905125839 27 237 4.8 20.9 0.00 0.08 0.08 22 1022.5
20260905124807 26 274 3.2 19.3 0.00 0.08 0.08 25 1022.4
20260905122657 26 281 4.8 20.9 0.00 0.08 0.08 24 1022.4
20260905121649 26 271 1.6 17.7 0.00 0.08 0.08 26 1022.6
20260905120647 26 270 3.2 19.3 0.00 0.08 0.08 29 1022.7
20260905115614 26 265 4.8 19.3 0.00 0.08 0.08 30 1022.6
20260905113537 26 205 3.2 16.1 0.00 0.08 0.08 32 1022.6
20260905112516 26 309 3.2 11.3 0.00 0.08 0.08 34 1022.7
20260905111451 25 239 3.2 9.7 0.00 0.08 0.08 35 1022.8
20260905105358 25 290 4.8 20.9 0.00 0.08 0.08 36 1022.8
20260905104342 24 271 3.2 16.1 0.00 0.08 0.08 39 1022.8
20260905103358 23 315 3.2 16.1 0.00 0.08 0.08 40 1022.8
20260905101218 23 266 4.8 20.9 0.00 0.08 0.08 40 1022.9
20260905100200 23 267 1.6 20.9 0.00 0.08 0.08 40 1022.9
20260905094009 22 348 1.6 14.5 0.00 0.08 0.08 45 1022.8
20260905091908 22 263 1.6 12.9 0.00 0.08 0.08 47 1022.8
20260905090901 22 279 1.6 11.3 0.00 0.08 0.08 47 1022.8
20260905085907 22 324 0.0 6.4 0.00 0.08 0.08 47 1022.9
20260905084929 21 277 1.6 3.2 0.00 0.08 0.08 49 1022.8
20260905083915 22 308 1.6 8.0 0.00 0.08 0.08 49 1022.6
20260905082857 22 277 1.6 11.3 0.00 0.08 0.08 50 1022.4
20260905081823 21 263 3.2 11.3 0.00 0.08 0.08 50 1022.4
20260905080805 21 268 1.6 16.1 0.00 0.08 0.08 51 1022.3
20260905075805 21 278 4.8 16.1 0.00 0.08 0.08 54 1022.3
20260905074751 21 317 3.2 14.5 0.00 0.08 0.08 56 1022.2
20260905073745 21 281 1.6 11.3 0.00 0.08 0.08 60 1022.1
20260905072741 20 201 0.0 0.0 0.00 0.08 0.08 64 1022.0
20260905071802 20 201 0.0 0.0 0.00 0.08 0.08 65 1021.7
20260905070744 20 201 0.0 0.0 0.00 0.08 0.08 68 1021.7
20260905063444 17 201 0.0 0.0 0.00 0.08 0.08 71 1021.3
20260905062412 17 201 0.0 0.0 0.00 0.08 0.08 71 1021.2
20260905061407 17 201 0.0 0.0 0.00 0.08 0.08 71 1021.0
20260905060336 17 201 0.0 0.0 0.00 0.08 0.08 71 1020.9
20260905055314 17 194 0.0 0.0 0.00 0.08 0.08 71 1020.8
20260905054322 17 192 1.6 9.7 0.00 0.08 0.08 70 1020.7
20260905053321 16 178 1.6 8.0 0.00 0.08 0.08 70 1020.5
20260905052331 16 175 1.6 6.4 0.00 0.08 0.08 70 1020.5
20260905051354 16 192 1.6 11.3 0.00 0.08 0.08 69 1020.4
20260905050337 16 175 1.6 11.3 0.00 0.08 0.08 69 1020.3
20260905045312 16 196 3.2 9.7 0.00 0.08 0.08 69 1020.0
20260905044327 16 201 3.2 9.7 0.00 0.08 0.08 68 1019.9
20260905043333 16 200 4.8 9.7 0.00 0.08 0.08 68 1019.8
20260905042327 16 201 4.8 11.3 0.00 0.08 0.08 68 1019.8
20260905041311 16 190 4.8 12.9 0.00 0.08 0.08 68 1019.7
20260905040315 16 178 1.6 12.9 0.00 0.08 0.08 69 1019.6
20260905035306 17 224 1.6 6.4 0.00 0.08 0.08 70 1019.5
20260905034248 17 183 1.6 6.4 0.00 0.08 0.08 70 1019.2
20260905033219 17 181 0.0 4.8 0.00 0.08 0.08 71 1019.1
20260905032152 17 178 1.6 6.4 0.00 0.08 0.08 71 1019.0
20260905031126 17 171 1.6 6.4 0.00 0.08 0.08 71 1019.1
20260905024956 18 144 0.0 0.0 0.00 0.08 0.08 71 1019.0
20260905022829 18 144 0.0 0.0 0.00 0.08 0.08 70 1018.9
20260905021845 18 144 0.0 0.0 0.00 0.08 0.08 69 1018.9
20260905020849 18 144 0.0 0.0 0.00 0.08 0.08 69 1018.8
20260905014811 19 144 0.0 0.0 0.00 0.08 0.08 68 1018.9
20260905012638 20 144 0.0 0.0 0.08 0.08 0.08 67 1018.8
20260905011659 20 144 0.0 0.0 0.08 0.08 0.08 66 1018.8
20260905010657 20 178 0.0 6.4 0.08 0.05 0.08 64 1018.5
20260905004617 20 51 0.0 1.6 0.00 0.00 0.00 62 1018.4
20260905003642 20 82 0.0 0.0 0.00 0.00 0.00 62 1018.2
20260905001545 20 82 0.0 0.0 0.00 0.00 0.00 61 1018.1
20260904235408 21 57 0.0 1.6 0.00 0.00 0.00 58 1017.7
20260904234337 21 44 0.0 0.0 0.00 0.00 0.00 57 1017.6
20260904232223 21 52 0.0 6.4 0.00 0.00 0.00 56 1017.3
20260904231213 21 46 0.0 3.2 0.00 0.00 0.00 56 1017.3
20260904230230 22 53 0.0 0.0 0.00 0.00 0.00 57 1017.0
20260904225242 22 67 0.0 1.6 0.00 0.00 0.00 56 1017.1
20260904223146 22 27 0.0 6.4 0.00 0.00 0.00 55 1017.0
20260904222136 22 22 0.0 12.9 0.00 0.00 0.00 54 1016.9
20260904221138 23 40 1.6 22.5 0.00 0.00 0.00 52 1016.7
20260904220202 23 22 4.8 22.5 0.00 0.00 0.00 49 1016.6
20260904214055 25 276 1.6 12.9 0.00 0.00 0.00 47 1016.1
20260904213118 25 292 1.6 12.9 0.00 0.00 0.00 47 1016.0
20260904212141 25 331 1.6 12.9 0.00 0.00 0.00 47 1015.9
20260904211153 25 266 1.6 12.9 0.00 0.00 0.00 46 1015.8
20260904210140 25 276 0.0 6.4 0.00 0.00 0.00 45 1015.6
20260904205116 25 298 0.0 6.4 0.00 0.00 0.00 44 1015.5
20260904204134 26 232 0.0 0.0 0.00 0.00 0.00 42 1015.4
20260904203157 26 232 0.0 0.0 0.00 0.00 0.00 41 1015.1